User: anonymous   Login
Location: Unspecified
(0.0000°N, 0.0000°E)
Time: 11:57:32
(UTC+00:00)
Language:

ELEKTRO-L - Orbit

View from above orbital plane
View from above orbital plane
View from above satellite
View from above satellite

Ground track
Ground track

The orbit data is extracted from the following two-line orbital elements,

1 37344U 11001A   14324.57252370 -.00000088  00000-0  00000+0 0  1481
2 37344 000.5466 080.5714 0001550 197.4024 063.6209 01.00273553 14082
Epoch (UTC): 20 November 2014 13:44:26
Eccentricity: 0.0001550
inclination: 0.5466°
perigee height: 35779 km
apogee height: 35792 km
right ascension of ascending node: 80.5714°
argument of perigee: 197.4024°
revolutions per day: 1.00273553
mean anomaly at epoch: 63.6209°
orbit number at epoch: 1408

The dashed part of the orbit path shows where the satellite is in the earth's shadow,  

DLR